[[{"header":{"parameterUnit":"m.s-1","parameterCategory":2,"la1":30.2991,"la2":30.254,"lo1":-89.0895,"lo2":-89.0444,"dx":0.0017,"dy":0.0017,"nx":28,"ny":28,"refTime":"2023-02-12T09:00:00:Z","depth":"0","parameterNumber":2,"parameterNumberName":"U-component_of_CURRENTS"},"data":[0,0,0,0,0,0,0,0,0,0,0,0,0,0,0,0,0,0,0,0,0,0,0,0,0,0,0,0,0,0,0,0,0,0,0,0,0,0,0,0,0,0,0,0,0,0,0,0,0,0,0,0,0,0,0,0,0,0,0.2122,0.2121,0,0.2068,0.2067,0.2067,0.2035,0.2035,0.2035,0.2035,0.1949,0.1947,0.1945,0,0,0,0,0,0,0,0,0,0,0,0,0,0.2192,0.2191,0.2122,0.2121,0.2121,0.2068,0.2067,0.2067,0.2035,0.2035,0.2035,0.2035,0.1949,0.1947,0.1944,0,0,0,0,0,0,0,0,0,0,0,0,0,0.2153,0.2191,0.2122,0.2098,0.2095,0.2068,0.2067,0.2066,0.2035,0.2035,0.2035,0.2034,0.195,0.1947,0.1944,0.1932,0,0,0.1935,0.1933,0,0,0,0,0,0,0,0,0.2155,0.2151,0.2102,0.2099,0.2096,0.2057,0.206,0.2019,0.2035,0.2059,0.2035,0.2034,0.1981,0.1976,0.1968,0.1928,0.1924,0.1934,0.1932,0.1931,0.193,0,0,0,0,0,0,0,0.2158,0.2153,0.2102,0.2101,0.2098,0.2087,0.2081,0.2053,0.2023,0.2057,0.2054,0.2047,0.198,0.1972,0.1966,0.1923,0.1934,0.1932,0.193,0.1928,0.1882,0.1883,0,0,0,0,0,0,0.2163,0.2155,0.2103,0.21,0.2124,0.2086,0.208,0.2071,0.2024,0.2017,0.2047,0.2045,0.1977,0.197,0.1963,0.1973,0.1931,0.1928,0.1926,0.1882,0.1883,0.1883,0,0,0,0,0,0,0.2165,0.2159,0.2106,0.2126,0.2118,0.2085,0.2075,0.207,0.2056,0.2017,0.2009,0.2038,0.1976,0.1967,0.1936,0.1968,0.1927,0.1924,0.1881,0.1882,0.1883,0.1976,0,0,0,0,0,0,0.2167,0.216,0.2165,0.2126,0.2117,0.2097,0.2075,0.2069,0.2052,0.2049,0.2007,0.1999,0.1975,0.1941,0.1933,0.1963,0.1922,0.188,0.1881,0.1883,0.1972,0.198,0.1986,0,0,0,0,0,0.217,0.2163,0.2166,0.216,0.2122,0.2097,0.2092,0.2068,0.2052,0.2053,0.2019,0.2,0.1944,0.1939,0.1929,0.1959,0.188,0.1881,0.1882,0.1968,0.1978,0.1986,0,0,0,0,0,0,0.2171,0.2158,0.216,0.2145,0.2132,0.2091,0.2086,0.2068,0.2042,0.2037,0.1997,0.1987,0.1977,0.1947,0.1942,0.1949,0.1913,0.1912,0.1982,0.199,0.1997,0.2008,0.1919,0,0,0,0,0,0.2182,0.2187,0.2166,0.2153,0.2151,0.2122,0.211,0.2094,0.2062,0.205,0.2023,0.1995,0.1977,0.1965,0.1942,0.1936,0.2018,0.1951,0.1959,0.1965,0.1967,0.2125,0.2149,0.1888,0.1888,0.1888,0,0,0.2171,0.217,0.2167,0.2158,0.2145,0.2132,0.2114,0.2096,0.2083,0.2044,0.2024,0.2015,0.1978,0.1981,0.1974,0.1959,0.2096,0.1967,0.1973,0.1971,0.2129,0.2155,0.2179,0.1889,0.1889,0.1889,0,0,0.2149,0.2161,0.2159,0.216,0.2154,0.214,0.2136,0.211,0.2103,0.2084,0.2063,0.2075,0.2027,0.2034,0.2022,0.2052,0.2127,0.2042,0.2091,0.2245,0.227,0.2291,0.25,0.254,0.2049,0.2049,0.2049,0,0.214,0.2139,0.2151,0.2152,0.2147,0.2142,0.2127,0.2122,0.2089,0.2094,0.2086,0.2085,0.2059,0.2083,0.2094,0.2073,0.2192,0.2065,0.2262,0.2284,0.2306,0.2514,0.2556,0.2054,0.2053,0.2053,0.2053,0,0.2115,0.2126,0.2123,0.2132,0.2126,0.212,0.2114,0.2116,0.2113,0.2117,0.2151,0.2152,0.2158,0.2163,0.2129,0.2251,0.2304,0.226,0.2253,0.2339,0.2552,0.2595,0.2061,0.2059,0.2058,0.2056,0,0,0.2074,0.2101,0.2103,0.2113,0.2123,0.2107,0.2106,0.2111,0.2131,0.2151,0.2207,0.22,0.224,0.223,0.2234,0.2356,0.2625,0.2372,0.2378,0.2605,0.3041,0.315,0.3208,0.2633,0.2639,0.2644,0.3158,0,0.2058,0.2053,0.207,0.2066,0.2067,0.2082,0.2084,0.2094,0.2127,0.2193,0.2247,0.2301,0.2256,0.2301,0.2412,0.2559,0.273,0.2493,0.2899,0.2912,0.3019,0.3257,0.322,0.3679,0.32,0.3208,0.3213,0,0.2047,0.2045,0.2032,0.2056,0.2056,0.2051,0.2079,0.2087,0.2177,0.2219,0.2306,0.2367,0.2529,0.2492,0.2839,0.2701,0.2877,0.3007,0.3029,0.3119,0.31,0.3498,0.3776,0.357,0.3279,0.3274,0.3269,0,0.203,0.2033,0.2021,0.2026,0.2038,0.2037,0.2043,0.2095,0.2151,0.2273,0.2382,0.2527,0.2693,0.2888,0.3127,0.3022,0.3562,0.345,0.3734,0.3746,0.3784,0.3788,0.3924,0.3741,0.374,0.3738,0.3737,0,0.2033,0.2028,0.2013,0.2014,0.2012,0.202,0.2063,0.209,0.2213,0.2329,0.2416,0.2595,0.2809,0.3108,0.3256,0.3682,0.3689,0.3828,0.3906,0.382,0.3822,0.3692,0.3553,0.3758,0.3753,0.375,0.3746,0,0.2036,0.2029,0.2028,0.202,0.2016,0.2017,0.2087,0.214,0.2251,0.2432,0.2501,0.2771,0.3164,0.3412,0.3819,0.3927,0.416,0.4381,0.4298,0.4356,0.4366,0.4235,0.4335,0.4231,0.4805,0.4811,0.4816,0,0.2037,0.2034,0.2028,0.2034,0.2034,0.2046,0.207,0.2147,0.224,0.2542,0.2663,0.3088,0.3381,0.4048,0.4336,0.4742,0.4456,0.4921,0.4676,0.4449,0.436,0.4036,0.3912,0.4808,0.4813,0.4817,0.482,0,0.2036,0.2038,0.2029,0.2045,0.2059,0.2089,0.2146,0.2234,0.2373,0.2568,0.2899,0.3167,0.382,0.4224,0.4751,0.4977,0.4651,0.5014,0.4795,0.4423,0.4066,0.3974,0.4402,0.4853,0.485,0.4848,0.4846,0.4844,0.2025,0.2028,0.2025,0.2043,0.2068,0.2124,0.2158,0.2277,0.2449,0.2716,0.2994,0.3375,0.3924,0.4673,0.4917,0.5192,0.4967,0.5059,0.4957,0.4674,0.4433,0.4972,0.5462,0.5462,0.5462,0.5462,0.5463,0,0.1987,0.1998,0.2023,0.2037,0.2066,0.2091,0.2194,0.2247,0.2429,0.2716,0.3001,0.3594,0.4082,0.4553,0.5059,0.5063,0.4833,0.4927,0.4398,0.4307,0.4864,0.4712,0.5037,0.5037,0.5037,0.5037,0.5038,0.5038,0.1962,0.1963,0.1981,0.2006,0.2035,0.2059,0.2112,0.2222,0.2399,0.2738,0.3049,0.3372,0.3929,0.447,0.4738,0.4743,0.4318,0.4222,0.4064,0.4362,0.4358,0.4354,0.4174,0.4382,0.4381,0.3353,0.3346,0.334]},{"header":{"parameterUnit":"m.s-1","parameterCategory":2,"la1":30.2991,"la2":30.254,"lo1":-89.0895,"lo2":-89.0444,"dx":0.0017,"dy":0.0017,"nx":28,"ny":28,"refTime":"2023-02-12T09:00:00:Z","depth":"0","parameterNumber":3,"parameterNumberName":"V-component_of_CURRENTS"},"data":[0,0,0,0,0,0,0,0,0,0,0,0,0,0,0,0,0,0,0,0,0,0,0,0,0,0,0,0,0,0,0,0,0,0,0,0,0,0,0,0,0,0,0,0,0,0,0,0,0,0,0,0,0,0,0,0,0,0,-0.2113,-0.2116,0,-0.2333,-0.2336,-0.2338,-0.2497,-0.2499,-0.25,-0.2501,-0.2536,-0.2536,-0.2536,0,0,0,0,0,0,0,0,0,0,0,0,0,-0.1884,-0.1887,-0.2113,-0.2116,-0.2119,-0.2333,-0.2336,-0.2339,-0.2497,-0.2499,-0.2501,-0.2502,-0.2537,-0.2536,-0.2536,0,0,0,0,0,0,0,0,0,0,0,0,0,-0.2031,-0.1888,-0.2112,-0.2224,-0.2236,-0.2332,-0.2336,-0.234,-0.2497,-0.2499,-0.2501,-0.2503,-0.2537,-0.2536,-0.2536,-0.2491,0,0,-0.2534,-0.2534,0,0,0,0,0,0,0,0,-0.2022,-0.2039,-0.2205,-0.2216,-0.223,-0.2391,-0.2269,-0.2381,-0.2496,-0.2397,-0.2501,-0.2504,-0.2469,-0.2474,-0.2513,-0.2492,-0.2494,-0.2534,-0.2534,-0.2533,-0.2533,0,0,0,0,0,0,0,-0.2012,-0.2031,-0.22,-0.2208,-0.2223,-0.2282,-0.2304,-0.2292,-0.2415,-0.2406,-0.2418,-0.2443,-0.2475,-0.2513,-0.2514,-0.2494,-0.2534,-0.2533,-0.2533,-0.2533,-0.2403,-0.24,0,0,0,0,0,0,-0.1981,-0.2021,-0.2193,-0.2206,-0.213,-0.2284,-0.2309,-0.2336,-0.2419,-0.2436,-0.2441,-0.245,-0.2513,-0.2515,-0.2516,-0.2439,-0.2533,-0.2533,-0.2533,-0.2406,-0.2402,-0.2398,0,0,0,0,0,0,-0.1976,-0.1994,-0.2184,-0.2119,-0.2147,-0.2285,-0.2315,-0.234,-0.2366,-0.2448,-0.2462,-0.2441,-0.2515,-0.2517,-0.2474,-0.2442,-0.2533,-0.2532,-0.2409,-0.2405,-0.24,-0.2301,0,0,0,0,0,0,-0.1968,-0.1991,-0.1998,-0.2117,-0.215,-0.2212,-0.2314,-0.2343,-0.238,-0.2392,-0.2451,-0.2459,-0.2517,-0.2475,-0.2474,-0.2443,-0.2532,-0.2413,-0.2407,-0.2402,-0.2308,-0.2294,-0.2281,0,0,0,0,0,-0.1959,-0.1942,-0.1997,-0.2018,-0.2155,-0.221,-0.223,-0.2336,-0.2376,-0.2369,-0.2402,-0.2457,-0.2438,-0.2471,-0.2471,-0.2439,-0.2416,-0.2409,-0.2402,-0.2315,-0.2297,-0.2281,0,0,0,0,0,0,-0.1827,-0.1961,-0.2022,-0.2044,-0.2113,-0.2236,-0.2233,-0.2305,-0.2333,-0.2326,-0.2408,-0.2415,-0.2376,-0.2396,-0.2431,-0.238,-0.2438,-0.243,-0.2371,-0.2354,-0.2341,-0.2292,-0.2531,0,0,0,0,0,-0.1805,-0.1838,-0.1959,-0.1969,-0.1989,-0.2103,-0.2137,-0.2203,-0.225,-0.2269,-0.2323,-0.2345,-0.2348,-0.234,-0.2353,-0.2302,-0.2279,-0.2281,-0.2267,-0.2256,-0.2212,-0.2157,-0.2134,-0.2375,-0.2375,-0.2376,0,0,-0.1757,-0.1832,-0.1851,-0.1944,-0.1998,-0.2012,-0.2125,-0.2144,-0.2155,-0.2255,-0.2254,-0.2295,-0.2321,-0.2294,-0.2276,-0.2305,-0.2169,-0.2247,-0.2237,-0.2199,-0.2147,-0.2124,-0.2103,-0.2371,-0.2371,-0.2372,0,0,-0.166,-0.1729,-0.1725,-0.177,-0.1845,-0.1912,-0.1903,-0.2008,-0.2048,-0.2052,-0.2127,-0.2125,-0.215,-0.2169,-0.2177,-0.2071,-0.2102,-0.2089,-0.1978,-0.1926,-0.1906,-0.1888,-0.1807,-0.1782,-0.2079,-0.2079,-0.2079,0,-0.1582,-0.1629,-0.1721,-0.1718,-0.1742,-0.1851,-0.1831,-0.1874,-0.1959,-0.1954,-0.2024,-0.2039,-0.2085,-0.2023,-0.202,-0.2041,-0.2008,-0.205,-0.1909,-0.1891,-0.1874,-0.1795,-0.177,-0.2073,-0.2074,-0.2075,-0.2075,0,-0.1507,-0.1534,-0.151,-0.1564,-0.1584,-0.1577,-0.1653,-0.1658,-0.1722,-0.1783,-0.1755,-0.1826,-0.1826,-0.1862,-0.192,-0.1824,-0.1836,-0.1906,-0.1955,-0.1844,-0.1768,-0.1743,-0.2065,-0.2067,-0.2069,-0.207,0,0,-0.1337,-0.1445,-0.1431,-0.1446,-0.1509,-0.1507,-0.1479,-0.1496,-0.1443,-0.1537,-0.1472,-0.1538,-0.1585,-0.1591,-0.1664,-0.1645,-0.153,-0.1723,-0.1723,-0.1647,-0.138,-0.1344,-0.1314,-0.1587,-0.1583,-0.1579,-0.1367,0,-0.1245,-0.1234,-0.1309,-0.1264,-0.1262,-0.1327,-0.1289,-0.13,-0.1324,-0.128,-0.1342,-0.131,-0.1477,-0.1459,-0.1468,-0.1503,-0.1462,-0.1578,-0.1492,-0.1488,-0.1475,-0.1283,-0.1273,-0.1079,-0.1343,-0.1339,-0.1336,0,-0.1147,-0.1165,-0.1127,-0.1145,-0.1134,-0.1106,-0.1038,-0.1023,-0.0982,-0.0988,-0.0973,-0.1026,-0.0992,-0.1158,-0.1138,-0.1205,-0.1266,-0.1317,-0.1312,-0.1288,-0.1404,-0.1235,-0.1025,-0.1291,-0.1298,-0.1301,-0.1304,0,-0.1013,-0.1025,-0.0999,-0.1007,-0.103,-0.098,-0.0965,-0.092,-0.0847,-0.0773,-0.0684,-0.0706,-0.065,-0.0744,-0.0873,-0.0985,-0.0836,-0.1003,-0.1014,-0.1013,-0.0985,-0.0987,-0.1021,-0.0957,-0.0957,-0.0958,-0.0958,0,-0.091,-0.0872,-0.093,-0.091,-0.0807,-0.0855,-0.0708,-0.0686,-0.0581,-0.0427,-0.0512,-0.0364,-0.0545,-0.0515,-0.0702,-0.0726,-0.0687,-0.0912,-0.0929,-0.0947,-0.0949,-0.117,-0.1328,-0.095,-0.0952,-0.0953,-0.0954,0,-0.0763,-0.0824,-0.0778,-0.0778,-0.0755,-0.0666,-0.0554,-0.0429,-0.0359,-0.0138,-0.0086,-0.0033,0.0016,-0.0152,-0.0237,-0.0437,-0.0609,-0.0554,-0.0543,-0.0563,-0.0876,-0.1026,-0.0924,-0.099,-0.0512,-0.051,-0.0508,0,-0.0696,-0.067,-0.065,-0.0585,-0.0575,-0.0464,-0.036,-0.0309,-0.0161,0.0079,0.0227,0.0346,0.0456,0.0373,0.007,-0.0135,-0.0427,-0.0297,-0.0532,-0.0804,-0.0986,-0.1069,-0.1141,-0.0447,-0.0445,-0.0443,-0.0441,0,-0.0536,-0.0534,-0.0491,-0.0383,-0.0282,-0.0156,-0.0009,0.0134,0.0256,0.0453,0.0739,0.0853,0.0786,0.0625,0.0331,0.0113,-0.0442,-0.0262,-0.0544,-0.0893,-0.0977,-0.1079,-0.0676,-0.0423,-0.0425,-0.0426,-0.0427,-0.0428,-0.0376,-0.031,-0.026,-0.0144,-0.002,0.0166,0.0302,0.0478,0.073,0.1025,0.1106,0.1293,0.1005,0.0618,0.0315,-0.0278,-0.029,-0.054,-0.0677,-0.0718,-0.0845,-0.0371,-0.0162,-0.0162,-0.0162,-0.0163,-0.0163,0,-0.0179,-0.0132,-0.0016,0.0123,0.0295,0.0304,0.0554,0.0695,0.0995,0.1243,0.1467,0.1451,0.1048,0.0545,-0.0185,-0.064,-0.0834,-0.091,-0.1093,-0.1135,-0.0709,-0.0783,-0.0697,-0.0697,-0.0697,-0.0696,-0.0696,-0.0696,-0.0067,0.0058,0.0083,0.037,0.0488,0.0712,0.0853,0.1054,0.1234,0.1546,0.1666,0.1747,0.1404,0.0075,-0.0925,-0.1175,-0.1505,-0.1507,-0.1672,-0.1527,-0.1507,-0.1489,-0.1599,-0.1686,-0.1687,-0.2046,-0.2051,-0.2055]}],[{"header":{"parameterUnit":"m.s-1","parameterCategory":2,"la1":30.2991,"la2":30.254,"lo1":-89.0895,"lo2":-89.0444,"dx":0.0017,"dy":0.0017,"nx":28,"ny":28,"refTime":"2023-02-12T09:00:00:Z","depth":"2","parameterNumber":2,"parameterNumberName":"U-component_of_CURRENTS"},"data":[0,0,0,0,0,0,0,0,0,0,0,0,0,0,0,0,0,0,0,0,0,0,0,0,0,0,0,0,0,0,0,0,0,0,0,0,0,0,0,0,0,0,0,0,0,0,0,0,0,0,0,0,0,0,0,0,0,0,0.0859,0.0859,0,0.0874,0.0875,0.0875,0.0857,0.0856,0.0855,0.0854,0.0895,0.0897,0.0899,0,0,0,0,0,0,0,0,0,0,0,0,0,0.092,0.0918,0.0859,0.0859,0.0859,0.0874,0.0875,0.0875,0.0857,0.0856,0.0855,0.0853,0.0894,0.0897,0.0899,0,0,0,0,0,0,0,0,0,0,0,0,0,0.0913,0.0918,0.086,0.0849,0.0848,0.0874,0.0875,0.0876,0.0857,0.0856,0.0854,0.0853,0.0893,0.0896,0.09,0.095,0,0,0.0909,0.091,0,0,0,0,0,0,0,0,0.0914,0.0912,0.0851,0.085,0.0848,0.0859,0.0911,0.09,0.0858,0.0858,0.0854,0.0852,0.0884,0.0888,0.0899,0.0952,0.0953,0.0909,0.0911,0.0912,0.0913,0,0,0,0,0,0,0,0.0914,0.0911,0.0869,0.0851,0.0849,0.0879,0.0876,0.091,0.0883,0.0858,0.0856,0.0851,0.0884,0.0896,0.09,0.0954,0.0909,0.0912,0.0914,0.0915,0.1051,0.1053,0,0,0,0,0,0,0.09,0.0911,0.0869,0.0869,0.0873,0.0878,0.0875,0.086,0.0882,0.0882,0.0853,0.085,0.0892,0.0896,0.0901,0.1002,0.0912,0.0915,0.0917,0.105,0.1052,0.1054,0,0,0,0,0,0,0.0901,0.0896,0.0868,0.0889,0.0886,0.0878,0.0862,0.0861,0.0887,0.0877,0.0878,0.088,0.0891,0.0897,0.0955,0.1001,0.0917,0.092,0.1047,0.105,0.1053,0.1178,0,0,0,0,0,0,0.0903,0.0896,0.0884,0.0887,0.0884,0.0898,0.0863,0.0863,0.0884,0.0882,0.0902,0.0902,0.089,0.095,0.0958,0.1004,0.0922,0.1045,0.1049,0.1052,0.1171,0.1184,0.1195,0,0,0,0,0,0.0905,0.0916,0.0883,0.0878,0.0866,0.0899,0.0902,0.0894,0.0887,0.0911,0.0928,0.0902,0.0975,0.0956,0.0964,0.1012,0.1044,0.1048,0.1052,0.1166,0.1182,0.1195,0,0,0,0,0,0,0.094,0.0914,0.0879,0.0878,0.0884,0.0894,0.094,0.0914,0.0948,0.0961,0.0943,0.0947,0.1004,0.0996,0.0974,0.1056,0.0999,0.1005,0.1083,0.1098,0.111,0.1146,0.0925,0,0,0,0,0,0.0936,0.0947,0.0915,0.0928,0.0946,0.0944,0.0958,0.0943,0.0968,0.0981,0.0981,0.0996,0.1027,0.1053,0.1063,0.1134,0.1179,0.1162,0.1174,0.1185,0.1218,0.1344,0.1373,0.1067,0.1067,0.1067,0,0,0.0947,0.0947,0.0944,0.0938,0.0968,0.0981,0.0955,0.1001,0.101,0.0985,0.1032,0.1039,0.1051,0.1112,0.1137,0.1117,0.1294,0.119,0.1199,0.1227,0.1352,0.1382,0.141,0.1069,0.1069,0.1068,0,0,0.1011,0.0998,0.1026,0.1021,0.1044,0.1051,0.1064,0.107,0.1088,0.1135,0.1107,0.1151,0.1197,0.1207,0.1224,0.1316,0.1344,0.131,0.1423,0.1545,0.1573,0.1598,0.1697,0.1729,0.1329,0.133,0.133,0,0.1014,0.1027,0.1045,0.1061,0.1061,0.1083,0.1095,0.113,0.1138,0.117,0.1168,0.1257,0.1248,0.1337,0.1363,0.1346,0.1425,0.137,0.1567,0.1592,0.1615,0.1711,0.1745,0.1336,0.1335,0.1335,0.1334,0,0.1072,0.1069,0.1118,0.1127,0.1139,0.1176,0.1189,0.1228,0.1265,0.1279,0.1382,0.1409,0.1457,0.1462,0.1455,0.1598,0.1603,0.1561,0.154,0.1655,0.1746,0.178,0.1345,0.1343,0.1341,0.1339,0,0,0.1094,0.1137,0.1145,0.1152,0.1163,0.1196,0.125,0.1307,0.1383,0.1431,0.1539,0.1598,0.1626,0.1647,0.1642,0.1763,0.1975,0.1757,0.176,0.1873,0.2273,0.2126,0.2148,0.1997,0.2004,0.2009,0.2273,0,0.1127,0.1179,0.1171,0.1214,0.1246,0.1251,0.1312,0.136,0.1444,0.1559,0.1641,0.1751,0.1695,0.1765,0.1866,0.1946,0.2072,0.1909,0.2129,0.2135,0.2007,0.2185,0.1866,0.2062,0.2305,0.2311,0.2315,0,0.1157,0.1195,0.124,0.1279,0.1298,0.1327,0.1444,0.1486,0.1633,0.1713,0.1832,0.1893,0.2052,0.2011,0.2246,0.2161,0.2236,0.2307,0.2317,0.2166,0.2052,0.1984,0.2114,0.2371,0.2367,0.2363,0.2359,0,0.1207,0.1232,0.129,0.1284,0.1339,0.1386,0.1439,0.1551,0.1645,0.1837,0.1962,0.2109,0.2247,0.2376,0.246,0.2406,0.274,0.2656,0.26,0.2589,0.235,0.2306,0.2863,0.2862,0.2862,0.2861,0.286,0,0.1232,0.1279,0.1332,0.1362,0.1462,0.1458,0.1599,0.1677,0.1829,0.1968,0.2061,0.2224,0.2367,0.2527,0.2576,0.2694,0.2822,0.2679,0.2673,0.2378,0.2336,0.2607,0.2574,0.2871,0.2869,0.2867,0.2865,0,0.1293,0.1314,0.1393,0.1465,0.1496,0.158,0.1701,0.1804,0.1941,0.2134,0.2218,0.2403,0.2603,0.27,0.2923,0.2845,0.2962,0.2962,0.2588,0.2533,0.2707,0.2678,0.2965,0.2962,0.296,0.2959,0.2957,0,0.1347,0.139,0.149,0.1544,0.1591,0.1698,0.1777,0.1884,0.1987,0.2226,0.2336,0.2576,0.2685,0.292,0.2865,0.2933,0.3016,0.2665,0.2472,0.2766,0.2732,0.2705,0.2678,0.222,0.2213,0.2207,0.2202,0,0.1448,0.1489,0.1548,0.165,0.1738,0.1811,0.1925,0.2012,0.2132,0.2279,0.2472,0.2575,0.2731,0.2625,0.2652,0.2631,0.2613,0.2542,0.3028,0.2204,0.2074,0.2036,0.2033,0.2148,0.2154,0.2158,0.216,0.2163,0.1534,0.1586,0.1648,0.1721,0.1815,0.1868,0.189,0.1996,0.2107,0.2211,0.2413,0.2413,0.2371,0.2231,0.2252,0.2228,0.2353,0.2195,0.2211,0.2234,0.2061,0.193,0.1947,0.1951,0.1955,0.1958,0.196,0,0.1558,0.1605,0.1699,0.1747,0.1772,0.1841,0.1927,0.1893,0.1934,0.2049,0.2146,0.1864,0.1785,0.1833,0.1673,0.1669,0.1653,0.1653,0.1573,0.162,0.1663,0.1462,0.1191,0.119,0.119,0.119,0,0,0.1557,0.1596,0.1599,0.1624,0.167,0.1665,0.1662,0.1669,0.17,0.1612,0.1537,0.1636,0.1641,0.135,0.1333,0.1261,0.1463,0.1231,0.181,0.1754,0.1799,0.1896,0.1627,0,0,0,0,0]},{"header":{"parameterUnit":"m.s-1","parameterCategory":2,"la1":30.2991,"la2":30.254,"lo1":-89.0895,"lo2":-89.0444,"dx":0.0017,"dy":0.0017,"nx":28,"ny":28,"refTime":"2023-02-12T09:00:00:Z","depth":"2","parameterNumber":3,"parameterNumberName":"V-component_of_CURRENTS"},"data":[0,0,0,0,0,0,0,0,0,0,0,0,0,0,0,0,0,0,0,0,0,0,0,0,0,0,0,0,0,0,0,0,0,0,0,0,0,0,0,0,0,0,0,0,0,0,0,0,0,0,0,0,0,0,0,0,0,0,-0.0045,-0.0045,0,-0.0064,-0.0064,-0.0065,-0.0124,-0.0125,-0.0125,-0.0126,-0.0479,-0.0487,-0.0496,0,0,0,0,0,0,0,0,0,0,0,0,0,-0.0123,-0.0121,-0.0045,-0.0045,-0.0044,-0.0063,-0.0064,-0.0065,-0.0124,-0.0125,-0.0126,-0.0126,-0.0476,-0.0486,-0.0497,0,0,0,0,0,0,0,0,0,0,0,0,0,-0.0115,-0.0121,-0.0045,-0.0072,-0.0074,-0.0063,-0.0064,-0.0065,-0.0123,-0.0125,-0.0126,-0.0127,-0.0473,-0.0485,-0.0498,-0.0555,0,0,-0.0538,-0.0543,0,0,0,0,0,0,0,0,-0.0115,-0.0113,-0.0068,-0.007,-0.0072,-0.0088,-0.0221,-0.0244,-0.0123,-0.0111,-0.0126,-0.0127,-0.0375,-0.0395,-0.04,-0.0571,-0.0586,-0.0539,-0.0547,-0.0552,-0.0556,0,0,0,0,0,0,0,-0.0116,-0.0113,-0.0058,-0.0067,-0.007,-0.0104,-0.0104,-0.0225,-0.0246,-0.0112,-0.0115,-0.0107,-0.0379,-0.0387,-0.0409,-0.0591,-0.0538,-0.055,-0.0558,-0.0563,-0.0907,-0.0908,0,0,0,0,0,0,-0.0097,-0.0112,-0.0057,-0.0058,-0.0091,-0.0101,-0.0101,-0.0086,-0.0238,-0.0258,-0.0106,-0.011,-0.0364,-0.0394,-0.0422,-0.0621,-0.0552,-0.0564,-0.0572,-0.0905,-0.0907,-0.0908,0,0,0,0,0,0,-0.0098,-0.0092,-0.0057,-0.0082,-0.0079,-0.0097,-0.008,-0.0086,-0.0159,-0.0229,-0.0257,-0.018,-0.0366,-0.0404,-0.0605,-0.0632,-0.057,-0.0582,-0.0904,-0.0906,-0.0908,-0.0943,0,0,0,0,0,0,-0.0101,-0.0092,-0.01,-0.008,-0.0077,-0.0075,-0.0079,-0.0085,-0.0145,-0.0153,-0.0302,-0.033,-0.037,-0.0586,-0.0618,-0.0648,-0.0592,-0.0902,-0.0905,-0.0907,-0.094,-0.0946,-0.0951,0,0,0,0,0,-0.0103,-0.0146,-0.01,-0.0094,-0.0078,-0.0075,-0.0079,-0.0099,-0.0149,-0.0175,-0.0311,-0.0329,-0.0621,-0.0601,-0.0638,-0.0671,-0.0901,-0.0904,-0.0907,-0.0938,-0.0945,-0.0951,0,0,0,0,0,0,-0.019,-0.0153,-0.0104,-0.0129,-0.0095,-0.0084,-0.0153,-0.0143,-0.0263,-0.0321,-0.0401,-0.044,-0.0607,-0.0646,-0.062,-0.0768,-0.0743,-0.0753,-0.0753,-0.0761,-0.0766,-0.0709,-0.0603,0,0,0,0,0,-0.0197,-0.0219,-0.0154,-0.0171,-0.0188,-0.0176,-0.0195,-0.0183,-0.0263,-0.0316,-0.0402,-0.0516,-0.0632,-0.071,-0.0802,-0.093,-0.0914,-0.0954,-0.096,-0.0964,-0.094,-0.0933,-0.0934,-0.0918,-0.0918,-0.0918,0,0,-0.0199,-0.0214,-0.02,-0.019,-0.0208,-0.0209,-0.0199,-0.0249,-0.0258,-0.0347,-0.0477,-0.0568,-0.0676,-0.0795,-0.0866,-0.0845,-0.0971,-0.0968,-0.0972,-0.0944,-0.0936,-0.0937,-0.0938,-0.092,-0.092,-0.092,0,0,-0.0262,-0.0278,-0.0311,-0.0281,-0.0294,-0.0303,-0.0328,-0.033,-0.0368,-0.0488,-0.0533,-0.0635,-0.0839,-0.0849,-0.0909,-0.1004,-0.1008,-0.1043,-0.103,-0.1026,-0.1026,-0.1026,-0.1044,-0.1046,-0.1035,-0.1035,-0.1035,0,-0.028,-0.0284,-0.0316,-0.033,-0.0314,-0.0357,-0.0347,-0.0398,-0.0445,-0.046,-0.0554,-0.0745,-0.0845,-0.092,-0.0953,-0.1012,-0.1028,-0.1005,-0.103,-0.1029,-0.1028,-0.1047,-0.1048,-0.1037,-0.1037,-0.1036,-0.1036,0,-0.031,-0.0307,-0.0363,-0.0378,-0.0378,-0.04,-0.0414,-0.0458,-0.0559,-0.0553,-0.0677,-0.0807,-0.0873,-0.0935,-0.1015,-0.1031,-0.1055,-0.1046,-0.1007,-0.1032,-0.1051,-0.1051,-0.104,-0.1039,-0.1038,-0.1038,0,0,-0.0341,-0.0372,-0.0376,-0.0359,-0.0389,-0.0395,-0.0456,-0.0471,-0.0494,-0.0607,-0.0613,-0.0827,-0.0837,-0.0898,-0.0956,-0.0989,-0.1035,-0.1034,-0.1033,-0.1041,-0.106,-0.1118,-0.1124,-0.1048,-0.1048,-0.1047,-0.1088,0,-0.0349,-0.0386,-0.038,-0.038,-0.0396,-0.0395,-0.0431,-0.0438,-0.0516,-0.0539,-0.0648,-0.0715,-0.0841,-0.0874,-0.0931,-0.0985,-0.1033,-0.1026,-0.1043,-0.1043,-0.1081,-0.1124,-0.096,-0.0986,-0.1088,-0.1088,-0.1088,0,-0.0341,-0.038,-0.038,-0.0364,-0.0372,-0.0372,-0.0397,-0.0405,-0.0429,-0.0475,-0.0524,-0.0586,-0.064,-0.0754,-0.087,-0.0872,-0.0973,-0.1046,-0.1048,-0.1077,-0.11,-0.0972,-0.0982,-0.1088,-0.1088,-0.1088,-0.1088,0,-0.0356,-0.036,-0.0385,-0.0358,-0.0366,-0.036,-0.0378,-0.0383,-0.0348,-0.0379,-0.0348,-0.0456,-0.0474,-0.0618,-0.0803,-0.0826,-0.0946,-0.0958,-0.1112,-0.1117,-0.0962,-0.0955,-0.1044,-0.1044,-0.1043,-0.1043,-0.1043,0,-0.0351,-0.0352,-0.0394,-0.0384,-0.0375,-0.0364,-0.0333,-0.0344,-0.029,-0.0217,-0.0291,-0.0273,-0.0448,-0.0539,-0.0738,-0.0936,-0.0882,-0.1112,-0.1127,-0.0978,-0.0973,-0.1035,-0.1033,-0.1045,-0.1045,-0.1044,-0.1044,0,-0.0323,-0.0362,-0.0358,-0.0379,-0.0372,-0.0354,-0.0259,-0.0201,-0.0185,-0.007,-0.0051,-0.0092,-0.0243,-0.0446,-0.0659,-0.0816,-0.1011,-0.1104,-0.0945,-0.0944,-0.1201,-0.1201,-0.1231,-0.1233,-0.1235,-0.1236,-0.1238,0,-0.0317,-0.0323,-0.0333,-0.0294,-0.0295,-0.0254,-0.0186,-0.0156,-0.0061,0.002,0.0096,0.0009,-0.009,-0.0427,-0.0654,-0.0951,-0.1081,-0.104,-0.1051,-0.1206,-0.1218,-0.1215,-0.1212,-0.0864,-0.0863,-0.0861,-0.086,0,-0.0264,-0.0278,-0.0264,-0.0201,-0.0142,-0.0055,0.0029,0.01,0.0166,0.0221,0.025,0.0177,-0.0054,-0.0297,-0.0675,-0.0853,-0.0975,-0.1025,-0.117,-0.0871,-0.0871,-0.0881,-0.0887,-0.0847,-0.0848,-0.0849,-0.085,-0.085,-0.0195,-0.0164,-0.0138,-0.0069,0.0026,0.0128,0.0194,0.0271,0.035,0.0464,0.0369,0.0287,0.0068,-0.0374,-0.0637,-0.0863,-0.0916,-0.1013,-0.1012,-0.1013,-0.0991,-0.0998,-0.0994,-0.0996,-0.0998,-0.1,-0.1001,0,-0.0094,-0.0061,0.0014,0.0088,0.0218,0.0234,0.0362,0.0427,0.0475,0.055,0.0543,0.029,0.0046,-0.0255,-0.0521,-0.076,-0.0701,-0.0876,-0.0737,-0.0747,-0.0757,-0.0719,-0.0651,-0.0651,-0.0652,-0.0652,0,0,-0.003,0.0044,0.0061,0.0244,0.0328,0.0498,0.0564,0.0625,0.0678,0.0615,0.0578,0.0579,0.0153,-0.0007,-0.0284,-0.0462,-0.0544,-0.0479,-0.0719,-0.0523,-0.0529,-0.0785,-0.0733,0,0,0,0,0]}],[{"header":{"parameterUnit":"m.s-1","parameterCategory":2,"la1":30.2991,"la2":30.254,"lo1":-89.0895,"lo2":-89.0444,"dx":0.0017,"dy":0.0017,"nx":28,"ny":28,"refTime":"2023-02-12T09:00:00:Z","depth":"4","parameterNumber":2,"parameterNumberName":"U-component_of_CURRENTS"},"data":[0,0,0,0,0,0,0,0,0,0,0,0,0,0,0,0,0,0,0,0,0,0,0,0,0,0,0,0,0,0,0,0,0,0,0,0,0,0,0,0,0,0,0,0,0,0,0,0,0,0,0,0,0,0,0,0,0,0,-0.0239,-0.0238,0,-0.0236,-0.0236,-0.0237,-0.023,-0.0229,-0.0229,-0.0229,-0.0225,-0.0225,-0.0225,0,0,0,0,0,0,0,0,0,0,0,0,0,-0.0295,-0.0294,-0.0239,-0.0238,-0.0238,-0.0236,-0.0237,-0.0237,-0.023,-0.0229,-0.0229,-0.0228,-0.0225,-0.0225,-0.0225,0,0,0,0,0,0,0,0,0,0,0,0,0,-0.0282,-0.0294,-0.0239,-0.0232,-0.0232,-0.0236,-0.0237,-0.0237,-0.023,-0.0229,-0.0229,-0.0228,-0.0225,-0.0225,-0.0226,-0.0241,0,0,-0.0227,-0.0227,0,0,0,0,0,0,0,0,-0.0283,-0.028,-0.0234,-0.0233,-0.0232,-0.023,-0.0255,-0.0237,-0.023,-0.0234,-0.0229,-0.0228,-0.0225,-0.0226,-0.0231,-0.024,-0.024,-0.0227,-0.0227,-0.0227,-0.0227,0,0,0,0,0,0,0,-0.0284,-0.0281,-0.0241,-0.0233,-0.0232,-0.0249,-0.0246,-0.0252,-0.0235,-0.0233,-0.0232,-0.0227,-0.0225,-0.023,-0.023,-0.024,-0.0227,-0.0227,-0.0228,-0.0228,-0.0271,-0.0272,0,0,0,0,0,0,-0.0275,-0.0281,-0.0241,-0.024,-0.0253,-0.0248,-0.0245,-0.0234,-0.0235,-0.0234,-0.0228,-0.0227,-0.023,-0.023,-0.023,-0.024,-0.0227,-0.0228,-0.0228,-0.027,-0.0271,-0.0272,0,0,0,0,0,0,-0.0277,-0.0272,-0.0241,-0.0259,-0.0256,-0.0247,-0.0235,-0.0234,-0.0245,-0.023,-0.023,-0.024,-0.0229,-0.023,-0.0232,-0.024,-0.0228,-0.0228,-0.0269,-0.027,-0.0272,-0.0264,0,0,0,0,0,0,-0.0278,-0.0272,-0.027,-0.0258,-0.0254,-0.0251,-0.0235,-0.0234,-0.0241,-0.024,-0.024,-0.0239,-0.0229,-0.0232,-0.0233,-0.024,-0.0229,-0.0268,-0.027,-0.0271,-0.0263,-0.0265,-0.0267,0,0,0,0,0,-0.028,-0.0283,-0.027,-0.0266,-0.0249,-0.0251,-0.0252,-0.0246,-0.0242,-0.0253,-0.0244,-0.0239,-0.0243,-0.0232,-0.0233,-0.0241,-0.0267,-0.0269,-0.0271,-0.0263,-0.0265,-0.0267,0,0,0,0,0,0,-0.0316,-0.0282,-0.0268,-0.0262,-0.0257,-0.0249,-0.0263,-0.0254,-0.0258,-0.026,-0.0245,-0.0243,-0.0252,-0.0253,-0.0241,-0.0262,-0.0258,-0.026,-0.0251,-0.0253,-0.0255,-0.0245,-0.0229,0,0,0,0,0,-0.0318,-0.0307,-0.0285,-0.0283,-0.0285,-0.0276,-0.0279,-0.0272,-0.0268,-0.027,-0.0254,-0.0254,-0.0263,-0.0261,-0.0267,-0.0274,-0.0275,-0.0284,-0.0285,-0.0287,-0.0282,-0.0302,-0.0304,-0.0279,-0.0279,-0.0278,0,0,-0.0334,-0.0313,-0.0309,-0.029,-0.0291,-0.0288,-0.0278,-0.0288,-0.0282,-0.0269,-0.026,-0.026,-0.0269,-0.0273,-0.0278,-0.0271,-0.0293,-0.0289,-0.029,-0.0284,-0.0304,-0.0306,-0.0308,-0.028,-0.028,-0.0279,0,0,-0.0357,-0.0343,-0.034,-0.0335,-0.0326,-0.0316,-0.0319,-0.0304,-0.03,-0.0291,-0.0284,-0.029,-0.0285,-0.029,-0.0296,-0.0317,-0.0306,-0.0319,-0.031,-0.033,-0.0331,-0.0333,-0.0325,-0.0325,-0.0313,-0.0313,-0.0313,0,-0.0374,-0.0357,-0.0346,-0.0342,-0.0338,-0.0327,-0.0328,-0.0325,-0.0305,-0.0302,-0.029,-0.0292,-0.0298,-0.0314,-0.0311,-0.032,-0.0313,-0.0297,-0.033,-0.0332,-0.0333,-0.0325,-0.0326,-0.0313,-0.0313,-0.0313,-0.0313,0,-0.0386,-0.0377,-0.0385,-0.0361,-0.0362,-0.0366,-0.0351,-0.0347,-0.0332,-0.0317,-0.0321,-0.032,-0.0312,-0.0326,-0.0318,-0.0335,-0.0318,-0.0333,-0.0319,-0.0335,-0.0325,-0.0326,-0.0313,-0.0313,-0.0313,-0.0313,0,0,-0.04,-0.0389,-0.0389,-0.0386,-0.0369,-0.0373,-0.037,-0.036,-0.0355,-0.0339,-0.0328,-0.0344,-0.0323,-0.0329,-0.0325,-0.0341,-0.0343,-0.0328,-0.0329,-0.0309,-0.0355,-0.0231,-0.0221,-0.0353,-0.0354,-0.0354,-0.0338,0,-0.0407,-0.0399,-0.0391,-0.0394,-0.0392,-0.0385,-0.0381,-0.0374,-0.0357,-0.0338,-0.0349,-0.0325,-0.033,-0.0305,-0.0329,-0.0339,-0.0347,-0.0344,-0.0352,-0.0352,-0.0232,-0.0219,-0.0356,-0.0338,-0.0339,-0.0339,-0.0339,0,-0.0405,-0.04,-0.0404,-0.0399,-0.0401,-0.0403,-0.0394,-0.0377,-0.036,-0.0338,-0.0321,-0.0305,-0.0304,-0.0306,-0.0336,-0.0325,-0.0331,-0.0349,-0.0349,-0.0236,-0.023,-0.0325,-0.0341,-0.0341,-0.0341,-0.0341,-0.0341,0,-0.0401,-0.0404,-0.0407,-0.0407,-0.0406,-0.0415,-0.0397,-0.0382,-0.0351,-0.0306,-0.0269,-0.0283,-0.0248,-0.029,-0.0292,-0.0307,-0.0326,-0.0358,-0.0261,-0.0253,-0.0374,-0.0372,-0.0384,-0.0384,-0.0385,-0.0385,-0.0385,0,-0.0388,-0.0392,-0.0413,-0.0413,-0.0425,-0.0413,-0.0396,-0.0375,-0.0326,-0.0276,-0.0246,-0.0219,-0.0238,-0.0241,-0.0282,-0.0248,-0.0313,-0.0243,-0.0237,-0.037,-0.0368,-0.0373,-0.0372,-0.0384,-0.0384,-0.0384,-0.0384,0,-0.0374,-0.0384,-0.0404,-0.0423,-0.0422,-0.0428,-0.0373,-0.0346,-0.0285,-0.0215,-0.0179,-0.015,-0.0127,-0.0148,-0.0193,-0.0189,-0.0208,-0.0185,-0.0291,-0.0293,-0.0129,-0.0128,-0.0077,-0.0073,-0.0069,-0.0066,-0.0063,0,-0.0362,-0.037,-0.0409,-0.042,-0.043,-0.0414,-0.0387,-0.0327,-0.0285,-0.0184,-0.0161,-0.0089,-0.0068,-0.0038,-0.0081,-0.0093,-0.01,-0.0086,-0.0135,-0.0097,-0.0096,-0.0102,-0.0106,-0.0057,-0.0056,-0.0055,-0.0054,0,-0.0352,-0.038,-0.0398,-0.0412,-0.0416,-0.0386,-0.0342,-0.0291,-0.0201,-0.0173,-0.0084,-0.0022,0.0021,0.0008,0.0051,0.0005,-0.0087,-0.0046,-0.0056,-0.0102,-0.0071,-0.0076,-0.0085,-0.004,-0.0042,-0.0043,-0.0044,0,-0.0361,-0.0373,-0.0395,-0.0409,-0.0399,-0.0338,-0.0314,-0.0242,-0.0181,-0.0069,-0.0066,-0.0004,0.0007,0.0059,0.0045,0.0088,0.0074,0.0066,0.005,0.0035,0.0071,0.0126,0.024,0,0,0,0,0,-0.0362,-0.0353,-0.0366,-0.0359,-0.0337,-0.033,-0.0275,-0.0246,-0.0176,-0.0094,-0.0053,-0.0008,0.0085,0.0069,0.0135,0.0091,0.0061,0.017,0.004,0.0034,0.0019,0.0055,0,0,0,0,0,0,-0.0363,-0.037,-0.0364,-0.0308,-0.0281,-0.0237,-0.0204,-0.0161,-0.012,-0.006,-0.0043,0.0011,0.0046,0.0045,0.0131,0.0141,0.0074,0.0193,0.0196,0.0043,0.0029,0.0017,0.0048,0,0,0,0,0]},{"header":{"parameterUnit":"m.s-1","parameterCategory":2,"la1":30.2991,"la2":30.254,"lo1":-89.0895,"lo2":-89.0444,"dx":0.0017,"dy":0.0017,"nx":28,"ny":28,"refTime":"2023-02-12T09:00:00:Z","depth":"4","parameterNumber":3,"parameterNumberName":"V-component_of_CURRENTS"},"data":[0,0,0,0,0,0,0,0,0,0,0,0,0,0,0,0,0,0,0,0,0,0,0,0,0,0,0,0,0,0,0,0,0,0,0,0,0,0,0,0,0,0,0,0,0,0,0,0,0,0,0,0,0,0,0,0,0,0,0.0287,0.0287,0,0.0291,0.0291,0.0291,0.0318,0.0319,0.0319,0.032,0.027,0.0268,0.0266,0,0,0,0,0,0,0,0,0,0,0,0,0,0.0349,0.0347,0.0287,0.0287,0.0287,0.0291,0.0291,0.0291,0.0318,0.0319,0.032,0.032,0.0271,0.0268,0.0266,0,0,0,0,0,0,0,0,0,0,0,0,0,0.0333,0.0346,0.0287,0.0301,0.0303,0.0291,0.0291,0.0291,0.0318,0.0319,0.032,0.0321,0.0272,0.0269,0.0266,0.0225,0,0,0.0257,0.0255,0,0,0,0,0,0,0,0,0.0334,0.0331,0.0299,0.03,0.0302,0.0306,0.0294,0.0266,0.0317,0.0311,0.032,0.0321,0.0277,0.0273,0.0271,0.0223,0.0221,0.0256,0.0254,0.0253,0.0252,0,0,0,0,0,0,0,0.0335,0.0331,0.0287,0.0299,0.0301,0.0324,0.0322,0.029,0.0286,0.0312,0.0314,0.0315,0.0277,0.0274,0.027,0.022,0.0256,0.0254,0.0252,0.0251,0.0115,0.0113,0,0,0,0,0,0,0.0332,0.0331,0.0287,0.0288,0.0322,0.0322,0.032,0.0303,0.0288,0.0287,0.0314,0.0317,0.0279,0.0274,0.0269,0.0221,0.0253,0.025,0.0249,0.0117,0.0115,0.0113,0,0,0,0,0,0,0.0333,0.0327,0.0287,0.0312,0.0309,0.0319,0.03,0.0302,0.0313,0.029,0.0289,0.0324,0.028,0.0273,0.0231,0.0219,0.0249,0.0246,0.0119,0.0116,0.0114,0.0123,0,0,0,0,0,0,0.0334,0.0327,0.0312,0.0311,0.0307,0.0283,0.0299,0.0302,0.0311,0.0315,0.0297,0.0294,0.028,0.0236,0.0228,0.0215,0.0244,0.0121,0.0118,0.0114,0.0125,0.0121,0.0118,0,0,0,0,0,0.0336,0.032,0.031,0.0305,0.0285,0.0283,0.0283,0.0295,0.0311,0.031,0.0289,0.0295,0.0209,0.0231,0.0223,0.0209,0.0123,0.0119,0.0115,0.0127,0.0122,0.0118,0,0,0,0,0,0,0.0335,0.0321,0.0311,0.0288,0.0284,0.0288,0.0292,0.0299,0.0284,0.0293,0.0271,0.0264,0.0223,0.0205,0.0231,0.0156,0.0167,0.0161,0.0179,0.0174,0.017,0.0168,0.0241,0,0,0,0,0,0.0325,0.0309,0.03,0.0279,0.0282,0.0286,0.0288,0.03,0.0289,0.0287,0.0267,0.0237,0.0196,0.0179,0.0144,0.0103,0.0088,0.0086,0.0082,0.0079,0.0068,0.0021,0.0013,0.0099,0.0099,0.0099,0,0,0.0316,0.0306,0.0296,0.0278,0.028,0.0266,0.0291,0.0303,0.0286,0.028,0.0247,0.0225,0.018,0.0134,0.0115,0.0123,0.005,0.0074,0.0073,0.0063,0.0016,0.0008,0.0001,0.0097,0.0097,0.0097,0,0,0.0298,0.0286,0.0271,0.0265,0.027,0.0269,0.0274,0.0279,0.028,0.0245,0.023,0.0196,0.0141,0.0105,0.0078,0.0027,0.0031,0.0022,0.0005,-0.004,-0.0047,-0.0053,-0.006,-0.0067,0.0022,0.0022,0.0022,0,0.0289,0.026,0.0267,0.0252,0.0247,0.0267,0.0255,0.0247,0.0233,0.0221,0.0234,0.0142,0.012,0.0046,0.0034,0.002,0.0009,0.0034,-0.0042,-0.0049,-0.0055,-0.0062,-0.0069,0.0022,0.0022,0.0022,0.0022,0,0.0258,0.0236,0.0233,0.0208,0.0204,0.0205,0.0199,0.0193,0.0198,0.0183,0.0132,0.0097,0.0042,0.0032,0.0019,-0.0044,-0.003,-0.0038,-0.0021,-0.0063,-0.0067,-0.0075,0.0022,0.0022,0.0022,0.0022,0,0,0.0233,0.0215,0.0211,0.0206,0.019,0.0195,0.016,0.0138,0.012,0.0099,0.0058,-0.0002,-0.0002,-0.0035,-0.0051,-0.0083,-0.0122,-0.0074,-0.0076,-0.0064,-0.0193,-0.0179,-0.0187,-0.0137,-0.0139,-0.0141,-0.0168,0,0.0206,0.0181,0.0172,0.0149,0.0143,0.0144,0.0111,0.0094,0.0075,0.0037,0.0005,-0.0042,-0.0035,-0.0051,-0.0087,-0.0121,-0.0148,-0.0112,-0.0171,-0.0173,-0.0142,-0.0198,-0.0147,-0.0174,-0.0176,-0.0177,-0.0178,0,0.0173,0.0166,0.0153,0.0138,0.0138,0.0134,0.0111,0.0079,0.0023,0.0006,-0.0046,-0.0078,-0.0139,-0.012,-0.0198,-0.0172,-0.0185,-0.0201,-0.0203,-0.0204,-0.0176,-0.0134,-0.0193,-0.0192,-0.0191,-0.019,-0.0189,0,0.0174,0.0149,0.0152,0.0146,0.0131,0.0142,0.0132,0.0087,0.0059,-0.001,-0.0034,-0.012,-0.0141,-0.0201,-0.022,-0.022,-0.0284,-0.0293,-0.0292,-0.0289,-0.0292,-0.0285,-0.0352,-0.0352,-0.0352,-0.0352,-0.0352,0,0.0153,0.015,0.0173,0.0176,0.0186,0.0172,0.016,0.0132,0.0077,0.0036,-0.0034,-0.0087,-0.0161,-0.0206,-0.0239,-0.028,-0.0301,-0.031,-0.0311,-0.0284,-0.0277,-0.0295,-0.0288,-0.0353,-0.0353,-0.0353,-0.0353,0,0.0155,0.016,0.0173,0.0188,0.0195,0.0215,0.0196,0.016,0.0128,0.0071,0.0048,-0.0057,-0.0132,-0.0182,-0.0265,-0.0285,-0.0339,-0.0338,-0.0277,-0.027,-0.031,-0.0303,-0.0384,-0.0384,-0.0384,-0.0384,-0.0384,0,0.0154,0.0164,0.0198,0.0211,0.0234,0.0248,0.0228,0.0193,0.0148,0.0082,0.0044,-0.0032,-0.0101,-0.0207,-0.0264,-0.0332,-0.033,-0.0342,-0.037,-0.0329,-0.0322,-0.0314,-0.0306,-0.0384,-0.0384,-0.0384,-0.0384,0,0.0149,0.0177,0.0188,0.022,0.0238,0.0216,0.0202,0.0168,0.0114,0.0114,0.0018,-0.0057,-0.013,-0.0233,-0.0253,-0.0307,-0.0344,-0.0344,-0.0345,-0.0371,-0.0331,-0.0321,-0.0314,-0.0384,-0.0384,-0.0384,-0.0384,0,0.0143,0.0156,0.0176,0.0205,0.0217,0.017,0.016,0.0105,0.0065,0.0018,-0.001,-0.009,-0.0123,-0.0218,-0.0256,-0.0293,-0.0326,-0.0341,-0.0343,-0.0343,-0.0323,-0.0265,-0.0316,0,0,0,0,0,0.0118,0.0112,0.0137,0.0148,0.0164,0.0157,0.0119,0.0096,0.0075,0.0012,0.0003,-0.0069,-0.0161,-0.0225,-0.0267,-0.0278,-0.0336,-0.0329,-0.0355,-0.0386,-0.0386,-0.0368,0,0,0,0,0,0,0.0088,0.0102,0.0116,0.0101,0.0093,0.0071,0.0034,0.0014,-0.0032,-0.0031,-0.0095,-0.0064,-0.0171,-0.0123,-0.026,-0.0273,-0.0295,-0.0354,-0.0354,-0.0386,-0.0386,-0.0386,-0.0368,0,0,0,0,0]}]]